[[{"header":{"parameterUnit":"m.s-1","parameterCategory":1,"la1":30.2991,"la2":30.254,"lo1":-89.0895,"lo2":-89.0444,"dy":0.0017,"dx":0.0017,"nx":28,"ny":28,"refTime":"2024-09-02T21:00:00:Z","depth":0,"parameterNumber":2,"parameterNumberName":"U-component_of_WINDS"},"data":[0,0,0,0,0,0,0,0,0,0,0,0,0,0,0,0,0,0,0,0,0,0,0,0,0,0,0,0,0,0,0,0,0,0,0,0,0,0,0,0,0,0,0,0,0,0,0,0,0,0,0,0,0,0,0,0,0,0,1.5702,1.5703,0,1.5741,1.5741,1.5742,1.5728,1.5728,1.5727,1.5726,1.5763,1.5765,1.5766,0,0,0,0,0,0,0,0,0,0,0,0,0,1.5615,1.5616,1.5702,1.5703,1.5703,1.5741,1.5741,1.5742,1.5729,1.5728,1.5727,1.5726,1.5762,1.5764,1.5767,0,0,0,0,0,0,0,0,0,0,0,0,0,1.5653,1.5617,1.5702,1.5701,1.5702,1.5741,1.5741,1.5742,1.5729,1.5728,1.5726,1.5725,1.5762,1.5764,1.5767,1.5808,0,0,1.5775,1.5776,0,0,0,0,0,0,0,0,1.5651,1.5656,1.5701,1.5701,1.5702,1.5729,1.5724,1.5764,1.5729,1.5718,1.5726,1.5724,1.5752,1.5756,1.5766,1.581,1.5812,1.5775,1.5777,1.5778,1.5779,0,0,0,0,0,0,0,1.5648,1.5654,1.5717,1.5702,1.5702,1.5698,1.5702,1.5731,1.5742,1.5719,1.5718,1.5723,1.5752,1.5763,1.5766,1.5812,1.5775,1.5778,1.5779,1.578,1.589,1.5891,0,0,0,0,0,0,1.5646,1.5652,1.5716,1.5719,1.5673,1.5701,1.5705,1.5721,1.5742,1.5743,1.5724,1.5722,1.5759,1.5763,1.5768,1.5815,1.5778,1.578,1.5782,1.5889,1.589,1.5892,0,0,0,0,0,0,1.5644,1.5651,1.5715,1.5685,1.5693,1.5703,1.5722,1.5723,1.5733,1.5745,1.5747,1.5733,1.5758,1.5764,1.5798,1.5817,1.5782,1.5784,1.5887,1.5889,1.5891,1.5913,0,0,0,0,0,0,1.5641,1.5651,1.5668,1.5686,1.5695,1.5745,1.5723,1.5724,1.5738,1.5736,1.5754,1.5756,1.5758,1.5794,1.5801,1.582,1.5786,1.5886,1.5888,1.5891,1.591,1.5915,1.5919,0,0,0,0,0,1.5638,1.5672,1.5668,1.5676,1.5716,1.5746,1.5751,1.5753,1.574,1.5756,1.5763,1.5756,1.5814,1.5798,1.5805,1.5825,1.5884,1.5887,1.589,1.5908,1.5914,1.5919,0,0,0,0,0,0,1.5655,1.5675,1.5671,1.5712,1.5728,1.5744,1.5765,1.576,1.5779,1.5777,1.5777,1.5782,1.5816,1.5824,1.5806,1.5865,1.5847,1.5852,1.5858,1.5864,1.5868,1.5865,1.5788,0,0,0,0,0,1.5664,1.5688,1.5703,1.5738,1.5746,1.5754,1.5768,1.5768,1.5784,1.579,1.58,1.5816,1.5837,1.5851,1.5872,1.5912,1.5915,1.5929,1.5934,1.5938,1.5941,1.596,1.5966,1.5902,1.5902,1.5902,0,0,1.5682,1.5695,1.571,1.5742,1.5754,1.5778,1.576,1.5786,1.5803,1.5794,1.5826,1.5834,1.5851,1.5888,1.5905,1.5896,1.596,1.5941,1.5944,1.5946,1.5964,1.597,1.5976,1.5904,1.5903,1.5903,0,0,1.5726,1.574,1.5769,1.5782,1.5801,1.5805,1.5812,1.583,1.5835,1.5867,1.586,1.588,1.5918,1.593,1.5941,1.5989,1.5981,1.5996,1.6018,1.6037,1.6042,1.6047,1.6062,1.6067,1.5999,1.5999,1.5999,0,1.5745,1.5782,1.5784,1.5811,1.5824,1.5817,1.5846,1.5858,1.5882,1.5891,1.5881,1.5927,1.5939,1.5977,1.5988,1.5998,1.6005,1.5993,1.6042,1.6046,1.605,1.6064,1.607,1.6001,1.6,1.6,1.6,0,1.5803,1.5829,1.585,1.5874,1.5889,1.5917,1.5922,1.5938,1.5937,1.5942,1.5974,1.5988,1.601,1.6019,1.6018,1.6057,1.6051,1.6041,1.6023,1.6058,1.6071,1.6077,1.6003,1.6002,1.6002,1.6001,0,0,1.5858,1.5883,1.5891,1.5901,1.5921,1.594,1.5967,1.5989,1.6001,1.6018,1.6039,1.6071,1.6062,1.6074,1.6075,1.6092,1.6126,1.608,1.608,1.6086,1.6166,1.6172,1.6178,1.6122,1.6123,1.6124,1.6164,0,1.5902,1.595,1.5952,1.5994,1.6017,1.601,1.6033,1.6047,1.6053,1.6072,1.6078,1.61,1.6088,1.6095,1.6112,1.6118,1.6141,1.6115,1.6139,1.614,1.6133,1.6185,1.6191,1.6229,1.617,1.6171,1.6171,0,1.596,1.5979,1.6023,1.6039,1.6048,1.6069,1.6088,1.6107,1.6122,1.6125,1.6139,1.6136,1.6162,1.6144,1.6178,1.616,1.617,1.6175,1.6176,1.6177,1.6156,1.6185,1.6241,1.6246,1.618,1.6179,1.6178,0,1.5993,1.6029,1.606,1.6069,1.6089,1.6103,1.6112,1.6126,1.6138,1.6156,1.6163,1.6184,1.6194,1.6209,1.6211,1.6198,1.6245,1.6227,1.6246,1.6246,1.6255,1.6254,1.6311,1.6265,1.6265,1.6265,1.6264,0,1.604,1.6067,1.6075,1.6093,1.6123,1.6125,1.6154,1.6162,1.6174,1.6193,1.619,1.6207,1.621,1.6228,1.6231,1.6257,1.6263,1.6264,1.6264,1.6263,1.6263,1.6269,1.6265,1.6266,1.6266,1.6265,1.6265,0,1.6081,1.6088,1.612,1.6136,1.6141,1.6161,1.6174,1.6192,1.6197,1.6221,1.6227,1.6235,1.6256,1.626,1.6285,1.6286,1.6317,1.6316,1.6312,1.6311,1.6329,1.6326,1.639,1.6398,1.6349,1.6349,1.6349,0,1.611,1.613,1.6148,1.6161,1.617,1.6191,1.6204,1.6207,1.622,1.6239,1.6253,1.6274,1.629,1.6324,1.6331,1.635,1.6347,1.6368,1.635,1.6348,1.6345,1.6343,1.6344,1.6371,1.6372,1.6372,1.6372,0,1.616,1.6162,1.6181,1.6201,1.6216,1.6232,1.6247,1.6257,1.6262,1.6277,1.6299,1.6312,1.6337,1.6356,1.6375,1.6383,1.6378,1.6378,1.6383,1.6382,1.6378,1.6378,1.6319,1.6377,1.6376,1.6376,1.6376,1.6375,1.6194,1.6211,1.6226,1.6247,1.6258,1.6272,1.6289,1.6296,1.6314,1.6335,1.6336,1.6359,1.6372,1.6397,1.6405,1.6423,1.6416,1.6423,1.6425,1.6426,1.6427,1.6377,1.6426,1.6426,1.6426,1.6426,1.6426,0,1.6241,1.6251,1.627,1.6291,1.6307,1.6302,1.6318,1.6332,1.6352,1.6365,1.6382,1.6405,1.6424,1.6433,1.6452,1.6464,1.6462,1.6468,1.6466,1.6468,1.6433,1.6426,1.6469,1.6469,1.6469,1.6469,1.6469,1.6469,1.6268,1.6296,1.63,1.6333,1.6342,1.6365,1.6374,1.6386,1.6396,1.6423,1.6439,1.6445,1.6456,1.6475,1.6492,1.6494,1.65,1.6507,1.6508,1.6475,1.647,1.6466,1.6459,1.6509,1.6509,1.6541,1.6541,1.6541]},{"header":{"parameterUnit":"m.s-1","parameterCategory":1,"la1":30.2991,"la2":30.254,"lo1":-89.0895,"lo2":-89.0444,"dy":0.0017,"dx":0.0017,"nx":28,"ny":28,"refTime":"2024-09-02T21:00:00:Z","depth":0,"parameterNumber":3,"parameterNumberName":"V-component_of_WINDS"},"data":[0,0,0,0,0,0,0,0,0,0,0,0,0,0,0,0,0,0,0,0,0,0,0,0,0,0,0,0,0,0,0,0,0,0,0,0,0,0,0,0,0,0,0,0,0,0,0,0,0,0,0,0,0,0,0,0,0,0,2.343,2.343,0,2.3436,2.3436,2.3436,2.341,2.3409,2.3408,2.3407,2.3412,2.3413,2.3413,0,0,0,0,0,0,0,0,0,0,0,0,0,2.3395,2.3396,2.343,2.343,2.343,2.3436,2.3436,2.3436,2.341,2.3409,2.3408,2.3407,2.3411,2.3412,2.3413,0,0,0,0,0,0,0,0,0,0,0,0,0,2.3406,2.3396,2.343,2.3418,2.3417,2.3436,2.3436,2.3436,2.341,2.3409,2.3408,2.3407,2.3411,2.3412,2.3414,2.3444,0,0,2.3417,2.3418,0,0,0,0,0,0,0,0,2.3406,2.3408,2.342,2.3419,2.3418,2.3421,2.3425,2.3438,2.341,2.3412,2.3407,2.3406,2.3416,2.3416,2.342,2.3444,2.3444,2.3417,2.3418,2.3419,2.3419,0,0,0,0,0,0,0,2.3405,2.3407,2.3432,2.342,2.3419,2.3411,2.3412,2.3427,2.342,2.3412,2.341,2.3411,2.3415,2.3419,2.342,2.3444,2.3417,2.3418,2.3419,2.342,2.3492,2.3493,0,0,0,0,0,0,2.3406,2.3407,2.3432,2.3432,2.3409,2.3413,2.3413,2.3421,2.342,2.3419,2.3412,2.341,2.3417,2.3418,2.342,2.3454,2.3419,2.342,2.3421,2.3491,2.3492,2.3493,0,0,0,0,0,0,2.3405,2.3408,2.3432,2.3419,2.3421,2.3415,2.3423,2.3422,2.3425,2.342,2.3419,2.3418,2.3416,2.3418,2.3438,2.3454,2.342,2.3421,2.3489,2.3491,2.3493,2.3523,0,0,0,0,0,0,2.3404,2.3408,2.342,2.3419,2.3422,2.345,2.3424,2.3422,2.3428,2.3425,2.3425,2.3424,2.3416,2.3436,2.3439,2.3455,2.3422,2.3488,2.349,2.3492,2.352,2.3525,2.353,0,0,0,0,0,2.3403,2.3429,2.3421,2.3424,2.3437,2.3451,2.3453,2.3443,2.3429,2.3441,2.3437,2.3424,2.3452,2.3438,2.3441,2.3458,2.3487,2.3489,2.3492,2.3518,2.3524,2.3529,0,0,0,0,0,0,2.3431,2.3428,2.342,2.3446,2.3449,2.3447,2.3461,2.345,2.3457,2.3454,2.3442,2.3442,2.3463,2.3463,2.3448,2.3486,2.3467,2.347,2.3485,2.3491,2.3496,2.3495,2.3423,0,0,0,0,0,2.344,2.3453,2.3449,2.3473,2.3475,2.3468,2.3473,2.3466,2.3468,2.3469,2.3467,2.347,2.3479,2.3485,2.3494,2.352,2.3519,2.3533,2.3538,2.3542,2.3544,2.3557,2.3563,2.3502,2.3502,2.3502,0,0,2.346,2.3459,2.3468,2.3478,2.348,2.3492,2.3469,2.3483,2.3491,2.3471,2.3489,2.3488,2.349,2.3513,2.3523,2.3513,2.3561,2.3545,2.3548,2.3549,2.356,2.3566,2.3571,2.3504,2.3503,2.3503,0,0,2.35,2.3502,2.3521,2.3523,2.3525,2.352,2.3525,2.3524,2.3523,2.3541,2.3526,2.3535,2.3552,2.3553,2.3556,2.3597,2.3584,2.36,2.3624,2.3637,2.3641,2.3645,2.3658,2.3664,2.3603,2.3603,2.3603,0,2.3523,2.3541,2.3532,2.3546,2.3551,2.3534,2.3552,2.3554,2.3559,2.3562,2.3551,2.3571,2.3571,2.3593,2.3603,2.3607,2.3611,2.36,2.3642,2.3646,2.3649,2.3662,2.3667,2.3605,2.3605,2.3605,2.3604,0,2.3569,2.3582,2.3596,2.3602,2.3608,2.3624,2.3616,2.3624,2.3616,2.3612,2.363,2.3629,2.3637,2.3642,2.3634,2.3663,2.3656,2.3644,2.3624,2.3657,2.3668,2.3673,2.3608,2.3607,2.3606,2.3606,0,0,2.3627,2.3626,2.3631,2.3633,2.3635,2.3644,2.3659,2.3667,2.3672,2.3677,2.3688,2.3702,2.3691,2.3694,2.3686,2.3698,2.3728,2.3683,2.3683,2.369,2.3758,2.3766,2.3772,2.372,2.3721,2.3722,2.3757,0,2.3665,2.3691,2.3683,2.3709,2.372,2.3703,2.3717,2.3719,2.3715,2.3723,2.372,2.3729,2.3714,2.3716,2.3726,2.3722,2.3741,2.372,2.373,2.373,2.3728,2.3778,2.3787,2.3821,2.3762,2.3762,2.3763,0,2.3713,2.3719,2.3746,2.3745,2.3749,2.3761,2.3766,2.3775,2.3777,2.3773,2.3777,2.3767,2.3781,2.3762,2.378,2.3766,2.377,2.3768,2.377,2.3769,2.3748,2.3777,2.3831,2.3836,2.377,2.377,2.3769,0,2.375,2.3765,2.3783,2.3785,2.3785,2.3793,2.3793,2.3794,2.3798,2.3803,2.3806,2.3812,2.3815,2.382,2.3812,2.3799,2.3831,2.3812,2.3828,2.3828,2.3834,2.3834,2.3888,2.3839,2.3839,2.3839,2.3839,0,2.3793,2.381,2.38,2.381,2.3829,2.3819,2.3837,2.3835,2.3835,2.3845,2.3832,2.3841,2.383,2.3838,2.3832,2.3847,2.3849,2.3846,2.3844,2.3846,2.3847,2.3848,2.3845,2.384,2.384,2.384,2.3839,0,2.3837,2.3831,2.3849,2.3847,2.3847,2.386,2.3858,2.3868,2.3863,2.3876,2.3878,2.3871,2.388,2.3872,2.3881,2.3876,2.3897,2.3892,2.3896,2.3894,2.391,2.3908,2.3966,2.3973,2.3921,2.3921,2.3922,0,2.3864,2.3877,2.3876,2.3881,2.3882,2.3892,2.3896,2.3887,2.3892,2.3894,2.3903,2.3911,2.3917,2.3931,2.3927,2.3933,2.3927,2.3947,2.3928,2.393,2.3926,2.3925,2.3925,2.395,2.3951,2.3951,2.3952,0,2.3912,2.3908,2.3916,2.3922,2.3928,2.3932,2.3935,2.3941,2.3931,2.3937,2.3946,2.395,2.3959,2.3966,2.3971,2.397,2.3959,2.3958,2.3962,2.3964,2.3965,2.3964,2.3905,2.3956,2.3956,2.3956,2.3955,2.3955,2.3947,2.3957,2.3958,2.3966,2.3968,2.3971,2.398,2.3977,2.3984,2.399,2.3984,2.3994,2.3995,2.4,2.4001,2.4008,2.4,2.4006,2.4007,2.4008,2.401,2.3965,2.4009,2.4009,2.4009,2.4009,2.4009,0,2.3993,2.3993,2.4001,2.4006,2.4012,2.4002,2.4005,2.401,2.402,2.4021,2.4027,2.4037,2.4044,2.404,2.4046,2.4053,2.4048,2.4054,2.4053,2.4053,2.4018,2.4013,2.4058,2.4058,2.4058,2.4058,2.4058,2.4058,2.4018,2.4034,2.403,2.4046,2.4046,2.4056,2.4058,2.4061,2.4062,2.4073,2.4079,2.4077,2.4076,2.4082,2.4087,2.4086,2.4088,2.4097,2.4093,2.406,2.4055,2.4051,2.4046,2.4098,2.4098,2.4128,2.4128,2.4128]}]]